This is the latest recevied weather packets stored in our database for station/object DB0LS-15. If no packets are shown the sender has not sent any weather packets the latest 10 day(s).
| Time | Temp. | Humidity | Pressure | Rain* | Wind** | Luminosity | Snow |
|---|---|---|---|---|---|---|---|
| 1777423852 | 5.56° C | 57% | 1009.3 hPa | 0 mm | - | - | - |
| 1777423243 | 6.11° C | 56% | 1009.2 hPa | 0 mm | - | - | - |
| 1777422633 | 6.11° C | 55% | 1009.2 hPa | 0 mm | - | - | - |
| 1777422029 | 6.67° C | 54% | 1009.1 hPa | 0 mm | - | - | - |
| 1777421419 | 6.67° C | 52% | 1009.1 hPa | 0 mm | - | - | - |
| 1777420816 | 6.67° C | 53% | 1009 hPa | 0 mm | - | - | - |
| 1777420267 | 6.67° C | 52% | 1009 hPa | 0 mm | - | - | - |
| 1777419657 | 7.22° C | 51% | 1008.9 hPa | 0 mm | - | - | - |
| 1777419053 | 7.22° C | 50% | 1008.8 hPa | 0 mm | - | - | - |
| 1777418444 | 7.22° C | 49% | 1008.8 hPa | 0 mm | - | - | - |
| 1777417840 | 7.78° C | 48% | 1008.7 hPa | 0 mm | - | - | - |
| 1777417231 | 7.78° C | 48% | 1008.7 hPa | 0 mm | - | - | - |
| 1777416622 | 7.78° C | 47% | 1008.6 hPa | 0 mm | - | - | - |
| 1777416018 | 7.78° C | 47% | 1008.7 hPa | 0 mm | - | - | - |
| 1777415470 | 7.22° C | 47% | 1008.6 hPa | 0 mm | - | - | - |
| 1777414866 | 7.78° C | 44% | 1008.4 hPa | 0 mm | - | - | - |
| 1777414258 | 8.33° C | 44% | 1008.5 hPa | 0 mm | - | - | - |
| 1777413654 | 8.33° C | 44% | 1008.6 hPa | 0 mm | - | - | - |
| 1777413046 | 8.33° C | 44% | 1008.4 hPa | 0 mm | - | - | - |
| 1777412442 | 8.33° C | 43% | 1008.3 hPa | 0 mm | - | - | - |
| 1777411832 | 8.89° C | 42% | 1008.3 hPa | 0 mm | - | - | - |
| 1777411228 | 8.89° C | 42% | 1008.1 hPa | 0 mm | - | - | - |
| 1777410618 | 8.89° C | 41% | 1008.1 hPa | 0 mm | - | - | - |
| 1777410070 | 9.44° C | 40% | 1008.1 hPa | 0 mm | - | - | - |
| 1777409466 | 9.44° C | 40% | 1008 hPa | 0 mm | - | - | - |
* Rain latest hour (hover to see other rain measurements)
** Current wind speed in m/s (hover to see current wind gust speed)